AFR198 LFPG-VTBS

Flight info

Callsign AFR198
Flight time N/A
Altitude 39000
Route LANVI DCT BEGAR DCT TRA DCT GAMSA DCT GEDSO DCT ABTAN DCT GOTAR DCT TEGRI DCT OPT DCT LUGEB DCT UDROS UN743 GAKSU UT310 SIN UM860 CRM UM11 REBLO M11 RODAR A909 TUNEK B143 KRS A240 INRAK B449 DOLOS B475 NINOP A909 LEMOD N644 DI A466 SULOM M890 LKN R460 CEA L507 IGONI WILLA1C
Aircraft B772/H-SDE2E3FGHIJ5LORVWXY/LB1D1

Departure

Time N/A
Airport Charles de Gaulle International Airport (LFPG)

Arrival

Time 2026-05-05 07:04
Airport Suvarnabhumi Airport (VTBS)
Time Latitude Longitude Altitude Speed Heading
2026-05-05 05:10 22.19518 89.18854 38913 ft 523 kts 127°
2026-05-05 05:10 22.15499 89.25396 38914 ft 523 kts 127°
2026-05-05 05:11 22.11461 89.31922 38912 ft 523 kts 127°
2026-05-05 05:11 22.07446 89.38397 38915 ft 522 kts 127°
2026-05-05 05:12 22.03404 89.44912 38913 ft 522 kts 127°
2026-05-05 05:12 21.99362 89.51422 38911 ft 522 kts 127°
2026-05-05 05:13 21.95321 89.57924 38913 ft 521 kts 127°
2026-05-05 05:13 21.91307 89.64375 38912 ft 521 kts 127°
2026-05-05 05:14 21.87265 89.70861 38915 ft 521 kts 127°
2026-05-05 05:14 21.83229 89.77332 38915 ft 520 kts 127°
2026-05-05 05:15 21.79195 89.83791 38919 ft 520 kts 127°
2026-05-05 05:15 21.75155 89.90252 38917 ft 519 kts 127°
2026-05-05 05:16 21.71121 89.96696 38915 ft 519 kts 127°
2026-05-05 05:16 21.67111 90.03094 38922 ft 519 kts 127°
2026-05-05 05:17 21.63078 90.09521 38926 ft 518 kts 127°
2026-05-05 05:17 21.59036 90.15955 38927 ft 518 kts 127°
2026-05-05 05:18 21.54998 90.22375 38924 ft 518 kts 127°
2026-05-05 05:18 21.50987 90.28745 38923 ft 518 kts 127°
2026-05-05 05:19 21.46950 90.35150 38923 ft 518 kts 127°
2026-05-05 05:19 21.42913 90.41547 38922 ft 517 kts 127°
2026-05-05 05:20 21.38869 90.47948 38925 ft 517 kts 127°
2026-05-05 05:20 21.34831 90.54333 38925 ft 517 kts 127°
2026-05-05 05:21 21.30791 90.60716 38924 ft 517 kts 127°
2026-05-05 05:21 21.26780 90.67052 38924 ft 517 kts 127°
2026-05-05 05:22 21.22740 90.73428 38923 ft 517 kts 127°
2026-05-05 05:22 21.18693 90.79810 38935 ft 516 kts 127°
2026-05-05 05:23 21.14650 90.86177 38940 ft 516 kts 127°
2026-05-05 05:23 21.10609 90.92533 38921 ft 516 kts 127°
2026-05-05 05:24 21.06564 90.98888 38928 ft 516 kts 127°
2026-05-05 05:24 21.02521 91.05234 38927 ft 516 kts 127°
2026-05-05 05:25 20.98503 91.11533 38916 ft 516 kts 127°
2026-05-05 05:25 20.94457 91.17869 38931 ft 515 kts 127°
2026-05-05 05:26 20.90410 91.24199 38929 ft 515 kts 127°
2026-05-05 05:26 20.86359 91.30528 38929 ft 515 kts 127°
2026-05-05 05:27 20.82309 91.36850 38923 ft 515 kts 127°
2026-05-05 05:27 20.76250 91.46293 38927 ft 515 kts 127°
2026-05-05 05:28 20.72186 91.52617 38928 ft 515 kts 127°
2026-05-05 05:28 20.68122 91.58936 38923 ft 516 kts 127°
2026-05-05 05:29 20.64056 91.65251 38919 ft 516 kts 127°
2026-05-05 05:29 20.60675 91.70497 38926 ft 516 kts 127°
2026-05-05 05:30 20.55941 91.77833 38919 ft 516 kts 127°
2026-05-05 05:30 20.52531 91.83113 38924 ft 516 kts 127°
2026-05-05 05:31 20.48459 91.89412 38924 ft 515 kts 127°
2026-05-05 05:31 20.44411 91.95667 38923 ft 515 kts 127°
2026-05-05 05:32 20.40334 92.01947 38919 ft 515 kts 127°
2026-05-05 05:32 20.36214 92.08194 38922 ft 514 kts 128°
2026-05-05 05:33 20.32085 92.14422 38919 ft 514 kts 128°
2026-05-05 05:33 20.27963 92.20644 38921 ft 513 kts 128°
2026-05-05 05:34 20.23874 92.26821 38925 ft 513 kts 128°
2026-05-05 05:34 20.19754 92.33041 38917 ft 513 kts 128°
2026-05-05 05:35 20.15644 92.39240 38923 ft 512 kts 128°
2026-05-05 05:35 20.11531 92.45435 38923 ft 512 kts 128°
2026-05-05 05:36 20.07413 92.51630 38916 ft 512 kts 128°
2026-05-05 05:36 20.03304 92.57806 38918 ft 511 kts 128°
2026-05-05 05:37 19.99192 92.63980 38921 ft 511 kts 128°
2026-05-05 05:37 19.95103 92.70114 38922 ft 511 kts 128°
2026-05-05 05:38 19.90979 92.76292 38912 ft 512 kts 128°
2026-05-05 05:38 19.86857 92.82463 38916 ft 512 kts 128°
2026-05-05 05:39 19.82756 92.88594 38909 ft 512 kts 128°
2026-05-05 05:39 19.78630 92.94757 38918 ft 512 kts 128°
2026-05-05 05:40 19.74493 93.00931 38919 ft 512 kts 128°
2026-05-05 05:40 19.70360 93.07091 38911 ft 513 kts 128°
2026-05-05 05:41 19.66218 93.13260 38916 ft 513 kts 128°
2026-05-05 05:41 19.62065 93.19437 38915 ft 513 kts 128°
2026-05-05 05:42 19.57948 93.25555 38914 ft 513 kts 128°
2026-05-05 05:42 19.53795 93.31721 38912 ft 513 kts 128°
2026-05-05 05:43 19.49641 93.37882 38902 ft 513 kts 128°
2026-05-05 05:43 19.45484 93.44040 38911 ft 514 kts 128°
2026-05-05 05:44 19.41326 93.50194 38910 ft 514 kts 128°
2026-05-05 05:44 19.37163 93.56349 38903 ft 514 kts 128°
2026-05-05 05:45 19.32996 93.62504 38908 ft 514 kts 128°
2026-05-05 05:45 19.28847 93.68626 38894 ft 514 kts 128°
2026-05-05 05:46 19.24674 93.74778 38897 ft 514 kts 128°
2026-05-05 05:46 19.20504 93.80920 38898 ft 513 kts 128°
2026-05-05 05:47 19.16333 93.87056 38894 ft 513 kts 128°
2026-05-05 05:47 19.12162 93.93186 38892 ft 513 kts 128°
2026-05-05 05:48 19.07996 93.99302 38889 ft 512 kts 128°
2026-05-05 05:48 19.03861 94.05368 38894 ft 512 kts 127°
2026-05-05 05:49 18.99690 94.11480 38897 ft 512 kts 127°
2026-05-05 05:49 18.95525 94.17576 38898 ft 511 kts 127°
2026-05-05 05:50 18.91362 94.23667 38888 ft 511 kts 127°
2026-05-05 05:50 18.87200 94.29748 38902 ft 510 kts 127°
2026-05-05 05:51 18.83034 94.35830 38893 ft 511 kts 127°
2026-05-05 05:51 18.78869 94.41901 38898 ft 510 kts 127°
2026-05-05 05:52 18.74707 94.47965 38904 ft 510 kts 127°
2026-05-05 05:52 18.70549 94.54019 38902 ft 510 kts 127°
2026-05-05 05:53 18.66386 94.60072 38898 ft 509 kts 127°
2026-05-05 05:53 18.62257 94.66073 38898 ft 509 kts 127°
2026-05-05 05:54 18.58096 94.72114 38893 ft 508 kts 127°
2026-05-05 05:54 18.54022 94.78215 38895 ft 508 kts 126°
2026-05-05 05:55 18.50028 94.84365 38878 ft 508 kts 126°
2026-05-05 05:55 18.46027 94.90495 38875 ft 507 kts 126°
2026-05-05 05:56 18.42040 94.96564 38883 ft 507 kts 126°
2026-05-05 05:56 18.38027 95.02661 38881 ft 506 kts 126°
2026-05-05 05:57 18.34012 95.08760 38874 ft 507 kts 126°
2026-05-05 05:57 18.29999 95.14851 38870 ft 506 kts 126°
2026-05-05 05:58 18.25854 95.20835 38862 ft 506 kts 128°
2026-05-05 05:58 18.21601 95.26743 38858 ft 506 kts 128°
2026-05-05 05:59 18.17363 95.32647 38855 ft 506 kts 128°
2026-05-05 05:59 18.13142 95.38571 38852 ft 506 kts 128°
2026-05-05 06:00 18.08956 95.44460 38850 ft 506 kts 127°
2026-05-05 06:00 18.04735 95.50393 38854 ft 506 kts 128°
2026-05-05 06:01 18.00517 95.56312 38853 ft 506 kts 128°
2026-05-05 06:01 17.96294 95.62232 38853 ft 506 kts 128°
2026-05-05 06:02 17.92068 95.68151 38848 ft 506 kts 128°
2026-05-05 06:02 17.87847 95.74057 38855 ft 506 kts 128°
2026-05-05 06:03 17.83621 95.79965 38853 ft 506 kts 128°
2026-05-05 06:03 17.79395 95.85868 38853 ft 506 kts 128°
2026-05-05 06:04 17.75186 95.91742 38856 ft 506 kts 128°
2026-05-05 06:04 17.70953 95.97645 38861 ft 506 kts 128°
2026-05-05 06:05 17.66711 96.03553 38861 ft 506 kts 128°
2026-05-05 06:05 17.62469 96.09459 38857 ft 507 kts 128°
2026-05-05 06:06 17.58250 96.15326 38864 ft 507 kts 128°
2026-05-05 06:06 17.54002 96.21228 38861 ft 507 kts 128°
2026-05-05 06:07 17.49753 96.27129 38865 ft 507 kts 128°
2026-05-05 06:07 17.45491 96.33040 38859 ft 508 kts 128°
2026-05-05 06:08 17.41224 96.38953 38867 ft 508 kts 128°
2026-05-05 06:08 17.36957 96.44862 38865 ft 508 kts 128°
2026-05-05 06:09 17.32721 96.50725 38866 ft 508 kts 128°
2026-05-05 06:09 17.28428 96.56604 38867 ft 508 kts 129°
2026-05-05 06:10 17.24092 96.62456 38866 ft 508 kts 129°
2026-05-05 06:10 17.19759 96.68297 38870 ft 508 kts 129°
2026-05-05 06:11 17.15438 96.74133 38870 ft 507 kts 129°
2026-05-05 06:11 17.11113 96.79976 38871 ft 507 kts 129°
2026-05-05 06:12 17.06793 96.85806 38871 ft 507 kts 129°
2026-05-05 06:12 17.02498 96.91599 38870 ft 507 kts 129°
2026-05-05 06:13 16.98170 96.97429 38871 ft 507 kts 129°
2026-05-05 06:13 16.93848 97.03248 38874 ft 507 kts 129°
2026-05-05 06:14 16.89515 97.09075 38874 ft 507 kts 129°
2026-05-05 06:14 16.85180 97.14902 38883 ft 508 kts 129°
2026-05-05 06:15 16.80842 97.20726 38881 ft 508 kts 129°
2026-05-05 06:15 16.76504 97.26546 38881 ft 508 kts 129°
2026-05-05 06:16 16.72156 97.32375 38878 ft 509 kts 129°
2026-05-05 06:16 16.68538 97.37223 38876 ft 509 kts 129°
2026-05-05 06:17 16.63474 97.43999 38876 ft 510 kts 129°
2026-05-05 06:17 16.59820 97.48885 38878 ft 510 kts 129°
2026-05-05 06:18 16.55461 97.54712 38875 ft 510 kts 129°
2026-05-05 06:18 16.51119 97.60509 38870 ft 510 kts 129°
2026-05-05 06:19 16.46753 97.66335 38873 ft 510 kts 129°
2026-05-05 06:19 16.42383 97.72162 38874 ft 510 kts 129°
2026-05-05 06:20 16.37992 97.77975 38870 ft 509 kts 131°
2026-05-05 06:20 16.33004 97.83184 38872 ft 507 kts 140°
2026-05-05 06:21 16.27670 97.87915 38870 ft 506 kts 141°
2026-05-05 06:21 16.22306 97.92664 38874 ft 506 kts 141°
2026-05-05 06:22 16.16967 97.97445 38878 ft 506 kts 140°
2026-05-05 06:22 16.11628 98.02248 38874 ft 506 kts 140°
2026-05-05 06:23 16.06287 98.07051 38880 ft 506 kts 140°
2026-05-05 06:23 16.00988 98.11810 38879 ft 506 kts 140°
2026-05-05 06:24 15.95648 98.16600 38878 ft 506 kts 140°
2026-05-05 06:24 15.90309 98.21387 38884 ft 506 kts 140°
2026-05-05 06:25 15.84974 98.26167 38886 ft 506 kts 140°
2026-05-05 06:25 15.79635 98.30946 38879 ft 506 kts 140°
2026-05-05 06:26 15.74297 98.35721 38890 ft 506 kts 140°
2026-05-05 06:26 15.68952 98.40499 38892 ft 506 kts 140°
2026-05-05 06:27 15.60988 98.47613 38904 ft 506 kts 140°
2026-05-05 06:28 15.55650 98.52377 38915 ft 506 kts 140°
2026-05-05 06:28 15.50313 98.57138 38921 ft 506 kts 139°
2026-05-05 06:29 15.45386 98.62353 38924 ft 506 kts 129°
2026-05-05 06:29 15.40977 98.68050 38928 ft 506 kts 129°
2026-05-05 06:30 15.36585 98.73763 38933 ft 507 kts 129°
2026-05-05 06:30 15.32158 98.79450 38938 ft 506 kts 129°
2026-05-05 06:30 15.29945 98.82276 38788 ft 503 kts 129°
2026-05-05 06:31 15.27773 98.85044 38538 ft 500 kts 129°
2026-05-05 06:31 15.25576 98.87842 38146 ft 501 kts 129°
2026-05-05 06:31 15.23372 98.90651 37668 ft 502 kts 129°
2026-05-05 06:31 15.21159 98.93468 37122 ft 505 kts 129°
2026-05-05 06:32 15.18946 98.96287 36567 ft 505 kts 129°
2026-05-05 06:32 15.16727 98.99113 36047 ft 505 kts 129°
2026-05-05 06:32 15.14510 99.01935 35532 ft 504 kts 129°
2026-05-05 06:32 15.12298 99.04751 35023 ft 503 kts 129°
2026-05-05 06:33 15.10095 99.07554 34530 ft 501 kts 129°
2026-05-05 06:33 15.07898 99.10348 34036 ft 498 kts 129°
2026-05-05 06:33 15.05744 99.13087 33493 ft 495 kts 129°
2026-05-05 06:33 15.03576 99.15842 32939 ft 491 kts 129°
2026-05-05 06:34 15.01425 99.18574 32422 ft 486 kts 129°
2026-05-05 06:34 14.99302 99.21271 31919 ft 479 kts 129°
2026-05-05 06:34 14.97206 99.23932 31457 ft 473 kts 129°
2026-05-05 06:34 14.95137 99.26559 30976 ft 467 kts 130°
2026-05-05 06:35 14.93097 99.29146 30513 ft 462 kts 130°
2026-05-05 06:35 14.91078 99.31707 30054 ft 457 kts 130°
2026-05-05 06:35 14.89083 99.34238 29521 ft 452 kts 130°
2026-05-05 06:35 14.87128 99.36715 29022 ft 447 kts 130°
2026-05-05 06:36 14.85169 99.39195 28496 ft 443 kts 130°
2026-05-05 06:36 14.83224 99.41655 28004 ft 440 kts 130°
2026-05-05 06:36 14.81290 99.44095 27509 ft 437 kts 130°
2026-05-05 06:36 14.79372 99.46516 27024 ft 434 kts 130°
2026-05-05 06:37 14.77462 99.48924 26542 ft 432 kts 130°
2026-05-05 06:37 14.75561 99.51321 26087 ft 430 kts 129°
2026-05-05 06:37 14.73670 99.53706 25620 ft 428 kts 129°
2026-05-05 06:37 14.71785 99.56083 25146 ft 426 kts 129°
2026-05-05 06:38 14.69912 99.58445 24710 ft 424 kts 129°
2026-05-05 06:38 14.68043 99.60802 24266 ft 422 kts 129°
2026-05-05 06:38 14.66185 99.63142 23874 ft 419 kts 129°
2026-05-05 06:38 14.64349 99.65456 23540 ft 415 kts 129°
2026-05-05 06:39 14.62527 99.67752 23171 ft 411 kts 129°
2026-05-05 06:39 14.60744 99.69996 22793 ft 407 kts 129°
2026-05-05 06:39 14.58953 99.72249 22420 ft 404 kts 129°
2026-05-05 06:39 14.57177 99.74486 22034 ft 402 kts 129°
2026-05-05 06:40 14.55411 99.76708 21671 ft 399 kts 129°
2026-05-05 06:40 14.53654 99.78918 21304 ft 397 kts 129°
2026-05-05 06:40 14.51902 99.81121 20945 ft 395 kts 129°
2026-05-05 06:40 14.50162 99.83307 20585 ft 394 kts 129°
2026-05-05 06:41 14.48426 99.85490 20234 ft 392 kts 129°
2026-05-05 06:41 14.46695 99.87664 19889 ft 390 kts 129°
2026-05-05 06:41 14.45141 99.89932 19527 ft 385 kts 120°
2026-05-05 06:41 14.43953 99.92399 19190 ft 380 kts 112°
2026-05-05 06:42 14.43104 99.94964 18850 ft 375 kts 104°
2026-05-05 06:42 14.42486 99.97557 18517 ft 370 kts 103°
2026-05-05 06:42 14.41890 100.00125 18182 ft 366 kts 103°
2026-05-05 06:42 14.41284 100.02660 17792 ft 362 kts 103°
2026-05-05 06:43 14.40672 100.05168 17421 ft 358 kts 104°
2026-05-05 06:43 14.40060 100.07644 17050 ft 355 kts 104°
2026-05-05 06:43 14.39447 100.10097 16683 ft 351 kts 104°
2026-05-05 06:43 14.38847 100.12492 16317 ft 348 kts 104°
2026-05-05 06:44 14.38245 100.14900 15982 ft 344 kts 104°
2026-05-05 06:44 14.37655 100.17261 15741 ft 337 kts 104°
2026-05-05 06:44 14.37076 100.19573 15494 ft 330 kts 104°
2026-05-05 06:44 14.36508 100.21843 15252 ft 324 kts 104°
2026-05-05 06:45 14.35947 100.24082 15010 ft 320 kts 104°
2026-05-05 06:45 14.35394 100.26297 14780 ft 318 kts 104°
2026-05-05 06:45 14.34844 100.28496 14545 ft 316 kts 104°
2026-05-05 06:45 14.34295 100.30686 14324 ft 314 kts 104°
2026-05-05 06:46 14.33749 100.32867 14096 ft 313 kts 104°
2026-05-05 06:46 14.33206 100.35030 13979 ft 309 kts 104°
2026-05-05 06:46 14.32667 100.37179 13917 ft 312 kts 104°
2026-05-05 06:46 14.32119 100.39366 13718 ft 317 kts 104°
2026-05-05 06:47 14.31577 100.41525 13475 ft 312 kts 104°
2026-05-05 06:47 14.31037 100.43675 13202 ft 306 kts 104°
2026-05-05 06:47 14.30507 100.45785 12944 ft 301 kts 104°
2026-05-05 06:47 14.29987 100.47854 12698 ft 296 kts 104°
2026-05-05 06:48 14.29471 100.49900 12437 ft 292 kts 104°
2026-05-05 06:48 14.28966 100.51913 12190 ft 288 kts 104°
2026-05-05 06:48 14.28466 100.53900 11948 ft 284 kts 104°
2026-05-05 06:48 14.27972 100.55862 11694 ft 280 kts 104°
2026-05-05 06:49 14.27485 100.57799 11447 ft 277 kts 104°
2026-05-05 06:49 14.27003 100.59710 11209 ft 274 kts 104°
2026-05-05 06:49 14.26524 100.61611 10974 ft 273 kts 104°
2026-05-05 06:49 14.26037 100.63487 10712 ft 268 kts 109°
2026-05-05 06:50 14.25056 100.65115 10267 ft 272 kts 137°
2026-05-05 06:50 14.23411 100.66054 9970 ft 273 kts 165°
2026-05-05 06:50 14.21554 100.66191 9695 ft 271 kts 188°
2026-05-05 06:50 14.19716 100.65763 9299 ft 272 kts 193°
2026-05-05 06:51 14.17892 100.65266 9038 ft 270 kts 194°
2026-05-05 06:51 14.16087 100.64770 8791 ft 267 kts 194°
2026-05-05 06:51 14.14367 100.64300 8547 ft 264 kts 194°
2026-05-05 06:51 14.12587 100.63819 8204 ft 266 kts 193°
2026-05-05 06:52 14.10788 100.63340 7849 ft 268 kts 193°
2026-05-05 06:52 14.08984 100.62863 7494 ft 265 kts 193°
2026-05-05 06:52 14.07215 100.62470 7119 ft 256 kts 181°
2026-05-05 06:52 14.05518 100.62804 6753 ft 248 kts 151°
2026-05-05 06:53 14.04242 100.63968 6430 ft 248 kts 122°
2026-05-05 06:53 14.03706 100.65635 6182 ft 244 kts 94°
2026-05-05 06:53 14.03909 100.67334 6086 ft 237 kts 77°
2026-05-05 06:53 14.04331 100.68955 6023 ft 233 kts 75°
2026-05-05 06:54 14.04776 100.70529 6018 ft 231 kts 74°
2026-05-05 06:54 14.05228 100.72112 5993 ft 231 kts 74°
2026-05-05 06:54 14.05678 100.73699 6012 ft 231 kts 74°
2026-05-05 06:54 14.06134 100.75292 5999 ft 232 kts 74°
2026-05-05 06:55 14.06595 100.76891 6011 ft 233 kts 74°
2026-05-05 06:55 14.07057 100.78490 5993 ft 232 kts 74°
2026-05-05 06:55 14.07513 100.80086 5993 ft 233 kts 74°
2026-05-05 06:55 14.07908 100.81684 5981 ft 227 kts 86°
2026-05-05 06:56 14.07602 100.83246 6019 ft 228 kts 118°
2026-05-05 06:56 14.06497 100.84422 5957 ft 233 kts 150°
2026-05-05 06:56 14.04976 100.85012 5752 ft 235 kts 168°
2026-05-05 06:56 14.03334 100.84996 5502 ft 238 kts 188°
2026-05-05 06:57 14.01724 100.84677 5281 ft 234 kts 191°
2026-05-05 06:57 14.00166 100.84299 5105 ft 230 kts 193°
2026-05-05 06:57 13.98631 100.83896 5047 ft 226 kts 193°
2026-05-05 06:57 13.97102 100.83490 5007 ft 227 kts 193°
2026-05-05 06:58 13.95589 100.83088 4996 ft 223 kts 193°
2026-05-05 06:58 13.94076 100.82687 4777 ft 228 kts 193°
2026-05-05 06:58 13.92539 100.82280 4497 ft 227 kts 193°
2026-05-05 06:58 13.91009 100.81876 4196 ft 226 kts 193°
2026-05-05 06:59 13.89491 100.81473 3929 ft 226 kts 194°
2026-05-05 06:59 13.87980 100.81074 3660 ft 228 kts 193°
2026-05-05 06:59 13.86439 100.80666 3367 ft 230 kts 194°
2026-05-05 06:59 13.84890 100.80257 3067 ft 227 kts 194°
2026-05-05 07:00 13.83394 100.79862 2757 ft 216 kts 194°
2026-05-05 07:00 13.81981 100.79487 2491 ft 203 kts 194°
2026-05-05 07:00 13.80658 100.79137 2273 ft 189 kts 194°
2026-05-05 07:00 13.79428 100.78810 2032 ft 177 kts 194°
2026-05-05 07:01 13.78284 100.78509 1811 ft 161 kts 193°
2026-05-05 07:01 13.77263 100.78240 1654 ft 144 kts 194°
2026-05-05 07:01 13.76322 100.77992 1435 ft 139 kts 193°
2026-05-05 07:01 13.75379 100.77742 1264 ft 141 kts 193°
2026-05-05 07:02 13.74432 100.77501 1062 ft 140 kts 193°
2026-05-05 07:02 13.73479 100.77244 894 ft 140 kts 194°
2026-05-05 07:02 13.72538 100.76985 732 ft 143 kts 194°
2026-05-05 07:02 13.71562 100.76736 523 ft 145 kts 192°
2026-05-05 07:03 13.70589 100.76477 353 ft 144 kts 192°
2026-05-05 07:03 13.69616 100.76221 141 ft 142 kts 192°
2026-05-05 07:03 13.68668 100.75973 26 ft 133 kts 191°
2026-05-05 07:03 13.67870 100.75764 15 ft 102 kts 194°
2026-05-05 07:04 13.67304 100.75613 18 ft 75 kts 194°
2026-05-05 07:04 13.66938 100.75518 18 ft 35 kts 194°
2026-05-05 07:04 13.66748 100.75425 18 ft 30 kts 218°
2026-05-05 07:04 13.66669 100.75351 17 ft 11 kts 226°
2026-05-05 07:05 13.66659 100.75282 17 ft 11 kts 304°
2026-05-05 07:05 13.66704 100.75267 17 ft 11 kts
2026-05-05 07:05 13.66778 100.75285 17 ft 11 kts 14°
2026-05-05 07:05 13.66852 100.75304 17 ft 11 kts 14°
2026-05-05 07:06 13.66925 100.75323 17 ft 11 kts 14°
2026-05-05 07:06 13.66999 100.75342 17 ft 11 kts 14°
2026-05-05 07:06 13.67072 100.75362 17 ft 11 kts 14°
2026-05-05 07:06 13.67146 100.75381 17 ft 11 kts 14°
2026-05-05 07:07 13.67219 100.75400 17 ft 11 kts 14°
2026-05-05 07:07 13.67293 100.75419 17 ft 11 kts 14°
2026-05-05 07:07 13.67365 100.75438 17 ft 11 kts 14°
2026-05-05 07:07 13.67439 100.75458 17 ft 11 kts 14°
2026-05-05 07:08 13.67512 100.75478 17 ft 11 kts 14°
2026-05-05 07:08 13.67585 100.75497 17 ft 11 kts 14°
2026-05-05 07:08 13.67659 100.75516 17 ft 11 kts 14°
2026-05-05 07:08 13.67733 100.75535 17 ft 11 kts 14°
2026-05-05 07:09 13.67806 100.75555 17 ft 11 kts 14°
2026-05-05 07:09 13.67880 100.75574 17 ft 11 kts 14°
2026-05-05 07:09 13.67953 100.75593 17 ft 11 kts 14°
2026-05-05 07:09 13.68026 100.75612 17 ft 11 kts 14°
2026-05-05 07:10 13.68100 100.75631 17 ft 11 kts 14°
2026-05-05 07:10 13.68173 100.75651 17 ft 11 kts 14°
2026-05-05 07:10 13.68246 100.75670 17 ft 11 kts 14°
2026-05-05 07:10 13.68320 100.75689 18 ft 11 kts 14°
2026-05-05 07:11 13.68393 100.75707 18 ft 11 kts
2026-05-05 07:11 13.68450 100.75666 18 ft 11 kts 294°
2026-05-05 07:11 13.68471 100.75590 17 ft 11 kts 285°
2026-05-05 07:11 13.68491 100.75514 17 ft 11 kts 285°
2026-05-05 07:12 13.68510 100.75439 17 ft 11 kts 284°
2026-05-05 07:12 13.68529 100.75362 17 ft 11 kts 284°
2026-05-05 07:12 13.68548 100.75286 17 ft 11 kts 284°
2026-05-05 07:12 13.68567 100.75210 17 ft 11 kts 284°
2026-05-05 07:13 13.68585 100.75134 17 ft 11 kts 284°
2026-05-05 07:13 13.68604 100.75058 18 ft 11 kts 284°
2026-05-05 07:13 13.68624 100.74984 18 ft 11 kts 284°
2026-05-05 07:13 13.68644 100.74908 18 ft 11 kts 284°
2026-05-05 07:14 13.68663 100.74832 18 ft 11 kts 284°
2026-05-05 07:14 13.68681 100.74756 18 ft 11 kts 284°
2026-05-05 07:14 13.68700 100.74680 18 ft 11 kts 284°
2026-05-05 07:14 13.68719 100.74604 19 ft 11 kts 285°
2026-05-05 07:15 13.68738 100.74528 18 ft 11 kts 284°
2026-05-05 07:15 13.68758 100.74452 18 ft 11 kts 284°
2026-05-05 07:15 13.68810 100.74405 18 ft 11 kts 355°
2026-05-05 07:15 13.68885 100.74420 18 ft 11 kts 13°
2026-05-05 07:16 13.68959 100.74440 18 ft 8 kts 14°
2026-05-05 07:16 13.68978 100.74445 18 ft 2 kts 14°
2026-05-05 07:16 13.68991 100.74449 18 ft 2 kts 14°
2026-05-05 07:16 13.69006 100.74455 18 ft 3 kts 34°
2026-05-05 07:17 13.69011 100.74474 18 ft 3 kts 88°
2026-05-05 07:17 13.69005 100.74496 18 ft 3 kts 105°
2026-05-05 07:17 13.68999 100.74522 18 ft 4 kts 105°
2026-05-05 07:17 13.68994 100.74539 18 ft 1 kts 105°
2026-05-05 07:18 13.68993 100.74546 18 ft 1 kts 105°
2026-05-05 07:18 13.68992 100.74546 18 ft 0 kts 105°